STARLINK-1090, 44968

Orbit data source: Space-Track

STARLINK-1090, 44968 is a payload satellite owned by SpaceX/Seattle (US) in LEO that was launched on Tue, 07 Jan 2020 UTC via an FALCON 9 launch vehicle from the Air Force Eastern Test Range (AFETR). Payload-class satellites include a variety of spacecraft equipped with specific instruments for various scientific and technological missions. These include communications satellites like Starlink; space stations such as the ISS; scientific satellites like the Hubble; Earth observation satellites from companies like Planet Labs, Umbra, and HawkEye 360; GPS; miniature CubeSats for education and research; and military/defense satellites.

Loading next visibility...
Identifier
44968, 2020-001BG
Orbit
LEO
Country
Flag of USUS
Related business
Manufacturer
SpaceX/Seattle
Mission
Partially operational Commercial Communications
Bus & Motor
STARLINK, Unknown motor
Mass
260 kg wet, ~248 kg dry
Launch date (UTC)
2020-01-07 (7 years ago)
Launch vehicle
FALCON 9
Launch site
Air Force Eastern Test Range (AFETR)
Object type
Payload
Rocket body
Debris
Shape & HBR
Box + 1 Pan, 10.1 m
Radar Cross Section
13.562 m², Large (>1 m²)

Expand to show TLE details & history
Last TLE update: 7 hours ago

TLE from 7 hours ago
0 STARLINK-1090
1 44968U 20001BG  26253.65156808  .00070637  00000-0  78394-3 0  9998
2 44968  53.1420 143.5782 0001721 105.3402 254.7802 15.62313169369063
Epoch: 2026-09-10T15:38Z
TLE epoch observation values (Epoch: 2026-09-10T15:38:15.482Z)
Latitude
-0.00006°
Longitude
-80.67257°
Altitude
382.193 km
Speed
7.682 km/s
True Right ascension
09h 34m 18s
True Declination
0° 00' 00"
Sunlit
Object was in daylight at epoch
Visualization orbit readout
Latitude
Unknown
Longitude
Unknown
Altitude
Unknown
Speed
Unknown
Apparent Right ascension
Unknown
Apparent Declination
Unknown
Sunlit
N/A
Visualization observer readout
Local Sidereal Time
15:17:38
Azimuth
Unknown
Elevation
Unknown
Doppler factor
Unknown
Orbital elements
Apogee altitude
382.403 km
Perigee altitude
380.077 km
Semi-major axis
6,759.377 km
Eccentricity
0.00017
Inclination
53.142°
RAAN
143.5782°
Arg. of periapsis
105.3402°
True anomaly
254.76117°
Mean anomaly
254.7802°
Eccentric anomaly
254.77069°
Mean motion
3.90556 °/min
Orbital period
92.18 mins
BSTAR
0.00078394
Loading maneuver chart data...
Computing Atmospheric mass density...

Documentation

Showing up to 5 results
|